Location: Blanot
(47.1713°N, 4.2340°E)
Time: 09:22:47
(UTC+00:00)

Cosmos 1500 - Pass Details

Date: 14 July 2020
Orbit: 498 x 521 km, 82.5° (Epoch: 05 August)

Event Time Altitude Azimuth Distance (km) Brightness Sun altitude
Exits shadow 00:58:24 26° 127° (SE) 1,040 4.5 -19.4°
Maximum altitude 00:59:36 32° 92° (E) 895 4.5 -19.4°
Drops below altitude 10° 01:03:01 10° 28° (NNE) 1,736 7.1 -19.2°
Sets 01:05:17 0° 18° (NNE) 2,622 8.5 -19.1°
